[[{"header":{"parameterUnit":"m.s-1","parameterCategory":1,"la1":30.2991,"la2":30.254,"lo1":-89.0895,"lo2":-89.0444,"dy":0.0017,"dx":0.0017,"nx":28,"ny":28,"refTime":"2024-08-26T21:00:00:Z","depth":0,"parameterNumber":2,"parameterNumberName":"U-component_of_WINDS"},"data":[0,0,0,0,0,0,0,0,0,0,0,0,0,0,0,0,0,0,0,0,0,0,0,0,0,0,0,0,0,0,0,0,0,0,0,0,0,0,0,0,0,0,0,0,0,0,0,0,0,0,0,0,0,0,0,0,0,0,-1.2379,-1.2379,0,-1.2441,-1.2442,-1.2442,-1.2447,-1.2447,-1.2446,-1.2445,-1.2509,-1.2512,-1.2514,0,0,0,0,0,0,0,0,0,0,0,0,0,-1.2264,-1.2267,-1.2378,-1.2379,-1.238,-1.2441,-1.2442,-1.2442,-1.2448,-1.2447,-1.2446,-1.2445,-1.2509,-1.2511,-1.2514,0,0,0,0,0,0,0,0,0,0,0,0,0,-1.2319,-1.2267,-1.2378,-1.239,-1.2392,-1.2441,-1.2442,-1.2443,-1.2448,-1.2447,-1.2446,-1.2445,-1.2508,-1.2511,-1.2515,-1.2556,0,0,-1.2525,-1.2527,0,0,0,0,0,0,0,0,-1.2316,-1.2323,-1.2387,-1.2389,-1.2391,-1.2435,-1.2425,-1.2481,-1.2448,-1.2426,-1.2445,-1.2444,-1.2486,-1.2491,-1.2505,-1.2559,-1.2562,-1.2526,-1.2528,-1.2529,-1.253,0,0,0,0,0,0,0,-1.2312,-1.2321,-1.2403,-1.2388,-1.2391,-1.2392,-1.2399,-1.2435,-1.2461,-1.2428,-1.2429,-1.2436,-1.2486,-1.2501,-1.2506,-1.2563,-1.2525,-1.2529,-1.2531,-1.2532,-1.2656,-1.2657,0,0,0,0,0,0,-1.2306,-1.2317,-1.2401,-1.2405,-1.235,-1.2395,-1.2402,-1.2422,-1.2461,-1.2465,-1.2437,-1.2436,-1.2496,-1.2502,-1.2509,-1.256,-1.2529,-1.2532,-1.2534,-1.2654,-1.2656,-1.2657,0,0,0,0,0,0,-1.2304,-1.2314,-1.2399,-1.2361,-1.2372,-1.2398,-1.242,-1.2424,-1.2439,-1.2467,-1.2472,-1.2447,-1.2495,-1.2504,-1.2545,-1.2563,-1.2534,-1.2537,-1.2653,-1.2655,-1.2657,-1.2664,0,0,0,0,0,0,-1.23,-1.2313,-1.2329,-1.2362,-1.2374,-1.2433,-1.2421,-1.2426,-1.2445,-1.2444,-1.2478,-1.2483,-1.2495,-1.2539,-1.2548,-1.2567,-1.254,-1.2652,-1.2654,-1.2656,-1.2662,-1.2666,-1.2669,0,0,0,0,0,-1.2296,-1.2328,-1.2329,-1.2339,-1.2395,-1.2434,-1.2442,-1.2455,-1.2446,-1.2463,-1.2481,-1.2482,-1.2559,-1.2543,-1.2553,-1.2573,-1.265,-1.2653,-1.2656,-1.2661,-1.2665,-1.2668,0,0,0,0,0,0,-1.2296,-1.2333,-1.2334,-1.2378,-1.2403,-1.2435,-1.2456,-1.2459,-1.2488,-1.2486,-1.2502,-1.2509,-1.255,-1.2566,-1.2548,-1.2616,-1.2604,-1.2609,-1.2604,-1.2608,-1.2612,-1.2607,-1.2543,0,0,0,0,0,-1.2302,-1.2331,-1.2361,-1.2396,-1.2409,-1.243,-1.2448,-1.2456,-1.2483,-1.2494,-1.2515,-1.2541,-1.2571,-1.2591,-1.262,-1.2664,-1.2672,-1.2683,-1.2686,-1.2689,-1.2693,-1.2718,-1.2723,-1.2666,-1.2666,-1.2666,0,0,-1.2312,-1.2336,-1.2353,-1.2397,-1.2417,-1.2447,-1.2439,-1.2471,-1.2494,-1.2499,-1.2539,-1.2555,-1.2585,-1.2628,-1.2648,-1.2643,-1.271,-1.2692,-1.2694,-1.2697,-1.2721,-1.2727,-1.2731,-1.2668,-1.2667,-1.2667,0,0,-1.2347,-1.2368,-1.24,-1.242,-1.2452,-1.2466,-1.2473,-1.2505,-1.2517,-1.2557,-1.2562,-1.2589,-1.264,-1.2662,-1.2679,-1.2723,-1.2725,-1.2732,-1.2749,-1.2773,-1.2778,-1.2782,-1.2797,-1.2803,-1.2736,-1.2736,-1.2736,0,-1.2357,-1.2402,-1.2416,-1.2448,-1.2467,-1.2473,-1.2506,-1.2525,-1.2564,-1.2578,-1.2571,-1.2636,-1.2657,-1.2705,-1.2716,-1.273,-1.2739,-1.2728,-1.2776,-1.278,-1.2784,-1.2799,-1.2805,-1.2736,-1.2736,-1.2736,-1.2736,0,-1.2412,-1.2443,-1.2465,-1.2503,-1.2525,-1.2557,-1.2576,-1.2596,-1.2603,-1.2618,-1.2659,-1.2684,-1.2719,-1.2731,-1.2738,-1.278,-1.2776,-1.2773,-1.2761,-1.279,-1.2804,-1.281,-1.2737,-1.2737,-1.2737,-1.2737,0,0,-1.2449,-1.2494,-1.2502,-1.2519,-1.2554,-1.2578,-1.2611,-1.2645,-1.2662,-1.2689,-1.2717,-1.2761,-1.2758,-1.2778,-1.2787,-1.2808,-1.2842,-1.2802,-1.2803,-1.2809,-1.289,-1.2893,-1.2899,-1.2843,-1.2844,-1.2845,-1.2888,0,-1.2487,-1.2545,-1.2559,-1.2609,-1.2638,-1.2644,-1.2673,-1.2698,-1.2713,-1.274,-1.2756,-1.2787,-1.2781,-1.2793,-1.2815,-1.2833,-1.2858,-1.283,-1.2869,-1.2871,-1.2861,-1.2907,-1.2909,-1.2948,-1.2893,-1.2894,-1.2895,0,-1.254,-1.2569,-1.2621,-1.2653,-1.2665,-1.2691,-1.2723,-1.2749,-1.2777,-1.2787,-1.2809,-1.2816,-1.2851,-1.2837,-1.2885,-1.2866,-1.2883,-1.2894,-1.2896,-1.29,-1.2884,-1.2912,-1.2961,-1.2966,-1.2904,-1.2903,-1.2903,0,-1.2562,-1.2613,-1.2651,-1.2666,-1.2703,-1.2721,-1.2737,-1.2765,-1.2784,-1.2813,-1.2826,-1.2858,-1.2875,-1.29,-1.2916,-1.2905,-1.2963,-1.295,-1.2972,-1.2971,-1.2983,-1.2982,-1.3035,-1.2994,-1.2994,-1.2994,-1.2994,0,-1.2604,-1.2636,-1.2661,-1.2685,-1.2721,-1.2736,-1.2772,-1.2788,-1.2813,-1.284,-1.2847,-1.2873,-1.2892,-1.292,-1.2933,-1.297,-1.2978,-1.2987,-1.299,-1.2986,-1.2985,-1.2998,-1.2995,-1.2996,-1.2995,-1.2995,-1.2995,0,-1.2634,-1.2652,-1.2694,-1.2726,-1.2735,-1.276,-1.2788,-1.2811,-1.2827,-1.2861,-1.287,-1.2894,-1.2927,-1.2946,-1.2987,-1.2996,-1.3038,-1.304,-1.3029,-1.303,-1.305,-1.3048,-1.3113,-1.3122,-1.3075,-1.3075,-1.3076,0,-1.2659,-1.2684,-1.2719,-1.2738,-1.2754,-1.2784,-1.2804,-1.2821,-1.2842,-1.2876,-1.2895,-1.2929,-1.2957,-1.301,-1.3031,-1.3063,-1.3066,-1.3086,-1.3071,-1.3066,-1.3066,-1.3064,-1.3067,-1.3089,-1.3089,-1.309,-1.309,0,-1.2703,-1.2711,-1.2739,-1.2771,-1.2795,-1.2821,-1.2847,-1.2862,-1.2882,-1.2905,-1.2939,-1.2961,-1.3004,-1.3037,-1.3071,-1.3089,-1.3093,-1.3095,-1.3101,-1.3098,-1.309,-1.3095,-1.3036,-1.3093,-1.3093,-1.3093,-1.3092,-1.3092,-1.2732,-1.2754,-1.2782,-1.2814,-1.2835,-1.2859,-1.2882,-1.29,-1.2929,-1.2965,-1.2973,-1.3009,-1.3037,-1.3083,-1.3102,-1.313,-1.3126,-1.3136,-1.3138,-1.3141,-1.3141,-1.3086,-1.3137,-1.3137,-1.3137,-1.3136,-1.3136,0,-1.2776,-1.2794,-1.2823,-1.2859,-1.2884,-1.2885,-1.2914,-1.2935,-1.2967,-1.2992,-1.302,-1.3059,-1.3092,-1.3116,-1.3149,-1.3168,-1.317,-1.3176,-1.3175,-1.3179,-1.3143,-1.3134,-1.3173,-1.3173,-1.3173,-1.3173,-1.3173,-1.3173,-1.2801,-1.2839,-1.2851,-1.2899,-1.2918,-1.2953,-1.2969,-1.2991,-1.3012,-1.3055,-1.3083,-1.3098,-1.3123,-1.3159,-1.3189,-1.3195,-1.3207,-1.3212,-1.3219,-1.3185,-1.3181,-1.3177,-1.3169,-1.3215,-1.3215,-1.3252,-1.3252,-1.3253]},{"header":{"parameterUnit":"m.s-1","parameterCategory":1,"la1":30.2991,"la2":30.254,"lo1":-89.0895,"lo2":-89.0444,"dy":0.0017,"dx":0.0017,"nx":28,"ny":28,"refTime":"2024-08-26T21:00:00:Z","depth":0,"parameterNumber":3,"parameterNumberName":"V-component_of_WINDS"},"data":[0,0,0,0,0,0,0,0,0,0,0,0,0,0,0,0,0,0,0,0,0,0,0,0,0,0,0,0,0,0,0,0,0,0,0,0,0,0,0,0,0,0,0,0,0,0,0,0,0,0,0,0,0,0,0,0,0,0,0.8731,0.8731,0,0.8698,0.8698,0.8697,0.8654,0.8654,0.8653,0.8652,0.8617,0.8617,0.8616,0,0,0,0,0,0,0,0,0,0,0,0,0,0.8757,0.8757,0.8731,0.8731,0.8731,0.8698,0.8698,0.8697,0.8654,0.8654,0.8653,0.8652,0.8617,0.8617,0.8616,0,0,0,0,0,0,0,0,0,0,0,0,0,0.8737,0.8757,0.8731,0.8705,0.8703,0.8698,0.8698,0.8697,0.8655,0.8654,0.8653,0.8652,0.8617,0.8617,0.8616,0.8634,0,0,0.8615,0.8615,0,0,0,0,0,0,0,0,0.8738,0.8736,0.871,0.8707,0.8704,0.8679,0.8694,0.8676,0.8655,0.8673,0.8652,0.8651,0.8638,0.8636,0.8632,0.8633,0.8631,0.8615,0.8614,0.8614,0.8614,0,0,0,0,0,0,0,0.874,0.8738,0.8718,0.8709,0.8706,0.8695,0.8691,0.869,0.8662,0.8671,0.8668,0.8665,0.8637,0.8633,0.8631,0.863,0.8615,0.8614,0.8614,0.8614,0.8644,0.8645,0,0,0,0,0,0,0.8745,0.8739,0.8719,0.8717,0.8719,0.8695,0.8691,0.8688,0.8662,0.8657,0.8666,0.8663,0.8634,0.8632,0.863,0.8649,0.8614,0.8614,0.8614,0.8643,0.8644,0.8645,0,0,0,0,0,0,0.8746,0.8744,0.8721,0.8727,0.8723,0.8696,0.8693,0.8688,0.8684,0.8658,0.8652,0.8667,0.8633,0.863,0.8633,0.8647,0.8614,0.8613,0.8642,0.8643,0.8645,0.8687,0,0,0,0,0,0,0.8747,0.8744,0.8751,0.8728,0.8723,0.8725,0.8694,0.8688,0.8684,0.868,0.8657,0.8652,0.8632,0.8634,0.8633,0.8646,0.8613,0.864,0.8642,0.8644,0.8685,0.869,0.8695,0,0,0,0,0,0.8748,0.8764,0.8752,0.875,0.8731,0.8726,0.8724,0.87,0.8685,0.8691,0.8674,0.8653,0.8646,0.8635,0.8633,0.8646,0.8639,0.8642,0.8644,0.8682,0.8689,0.8695,0,0,0,0,0,0,0.8789,0.8761,0.8746,0.8756,0.8744,0.8719,0.8726,0.8708,0.87,0.8697,0.8667,0.8663,0.867,0.8658,0.8647,0.8662,0.8639,0.8642,0.8669,0.8675,0.8681,0.8683,0.8613,0,0,0,0,0,0.88,0.8798,0.8773,0.8784,0.8779,0.8754,0.8751,0.8734,0.872,0.8715,0.8698,0.8685,0.868,0.8677,0.8671,0.8683,0.8677,0.8691,0.8696,0.8701,0.8703,0.8708,0.8714,0.8653,0.8653,0.8653,0,0,0.8821,0.8805,0.8806,0.8792,0.878,0.878,0.875,0.875,0.8749,0.8715,0.8717,0.8704,0.8688,0.8696,0.8699,0.8687,0.8718,0.8704,0.8707,0.8707,0.8711,0.8717,0.8722,0.8655,0.8655,0.8654,0,0,0.8858,0.8846,0.8854,0.8843,0.8827,0.8811,0.8813,0.8791,0.8781,0.8783,0.8757,0.8756,0.8747,0.8737,0.8731,0.8766,0.8746,0.8764,0.8791,0.8797,0.8802,0.8806,0.8818,0.8823,0.8767,0.8767,0.8767,0,0.8886,0.8884,0.886,0.8862,0.8856,0.8826,0.8833,0.8824,0.8807,0.8803,0.8791,0.878,0.8767,0.8772,0.8781,0.8777,0.8777,0.8766,0.8803,0.8807,0.881,0.8821,0.8826,0.8769,0.8769,0.8768,0.8768,0,0.8919,0.8918,0.8926,0.891,0.8906,0.8911,0.8887,0.8885,0.8869,0.8854,0.8856,0.884,0.883,0.883,0.8814,0.8833,0.8826,0.8809,0.8785,0.8819,0.8829,0.8833,0.8772,0.8772,0.8771,0.877,0,0,0.8981,0.8952,0.8955,0.8948,0.8928,0.8927,0.8931,0.8921,0.892,0.891,0.8911,0.8906,0.889,0.8883,0.8865,0.887,0.8899,0.8852,0.8851,0.8861,0.8918,0.8931,0.8937,0.8886,0.8887,0.8887,0.892,0,0.9014,0.9018,0.8997,0.9007,0.9005,0.8977,0.898,0.8968,0.8955,0.8951,0.8936,0.8932,0.8912,0.8907,0.8911,0.8895,0.891,0.8892,0.8887,0.8887,0.8891,0.8942,0.8955,0.8986,0.8923,0.8924,0.8925,0,0.9053,0.9045,0.9055,0.9035,0.9034,0.9037,0.9027,0.9025,0.9011,0.9,0.8993,0.8973,0.8975,0.8954,0.8955,0.8944,0.8941,0.8932,0.8933,0.8931,0.8907,0.8941,0.8996,0.9,0.8931,0.893,0.893,0,0.9097,0.9089,0.9093,0.9088,0.9065,0.9068,0.9059,0.9044,0.904,0.9031,0.9028,0.902,0.9015,0.9009,0.8987,0.8974,0.8991,0.8968,0.8982,0.8983,0.8987,0.8987,0.9042,0.8986,0.8986,0.8986,0.8986,0,0.9136,0.9143,0.9113,0.9116,0.9123,0.9098,0.9106,0.9094,0.9081,0.9081,0.9056,0.9056,0.9028,0.9025,0.9009,0.9013,0.9011,0.9002,0.8997,0.9004,0.9005,0.9001,0.8998,0.8987,0.8987,0.8986,0.8986,0,0.9185,0.9165,0.9169,0.9147,0.9142,0.9148,0.9129,0.9131,0.9116,0.9117,0.9115,0.9092,0.9087,0.9065,0.9056,0.9044,0.9054,0.9045,0.9059,0.9056,0.9071,0.907,0.9125,0.9131,0.9072,0.9072,0.9073,0,0.9211,0.9216,0.9195,0.9194,0.9186,0.9183,0.9179,0.9156,0.9152,0.9137,0.9141,0.9135,0.9128,0.9122,0.9104,0.9097,0.9087,0.9107,0.9086,0.9092,0.9087,0.9087,0.9087,0.9111,0.9112,0.9113,0.9113,0,0.9259,0.9249,0.9245,0.9237,0.9233,0.9226,0.9217,0.9217,0.919,0.9188,0.9183,0.9179,0.9169,0.9163,0.9153,0.9142,0.9123,0.912,0.9123,0.9129,0.9137,0.9133,0.9071,0.9119,0.9118,0.9118,0.9118,0.9117,0.9297,0.93,0.9287,0.9282,0.9273,0.9266,0.9266,0.9252,0.9248,0.9238,0.9225,0.9222,0.9208,0.9193,0.9184,0.9181,0.9171,0.9175,0.9176,0.9177,0.918,0.9138,0.918,0.9179,0.9179,0.9179,0.9179,0,0.9344,0.9334,0.933,0.9319,0.9315,0.9299,0.9288,0.9286,0.9284,0.9273,0.9268,0.9263,0.9257,0.9239,0.9231,0.9233,0.9224,0.9232,0.9231,0.9229,0.9191,0.9189,0.9239,0.9239,0.9239,0.9239,0.9239,0.9239,0.9368,0.9372,0.9361,0.936,0.935,0.9347,0.9343,0.9336,0.9327,0.9322,0.9318,0.9306,0.9292,0.9284,0.9278,0.9272,0.927,0.9281,0.9273,0.9237,0.9232,0.9226,0.9224,0.9281,0.9281,0.9311,0.9312,0.9312]}]]